,,Stat5,,Stat1,,Stat2,,Stat3,,Stat4,,Wind1,,Wind1,
time,status,PA1M_AVG,status,PR1M_SUM,status,RH1M_AVG,status,SR1M_AVG,status,TA1M_AVG,status,W1dAve1m,status,W1sAve1m,
2000-05-20, 00:00:00,VALID,918.02,VALID,0,VALID,98,VALID,-0.101885,VALID,19.6406,VALID,203,VALID,0,
2000-05-20, 00:01:00,VALID,918.018,VALID,0,VALID,98.1424,VALID,-0.0849042,VALID,19.6438,VALID,203,VALID,0,
2000-05-20, 00:02:00,VALID,918.012,VALID,0,VALID,98.2607,VALID,-0.101885,VALID,19.6565,VALID,203,VALID,0,
2000-05-20, 00:03:00,VALID,918.009,VALID,0,VALID,98.2391,VALID,-0.101885,VALID,19.6535,VALID,203,VALID,0,
2000-05-20, 00:04:00,VALID,918.018,VALID,0,VALID,98.1628,VALID,-0.101885,VALID,19.6115,VALID,203,VALID,0,
2000-05-20, 00:05:00,VALID,918.043,VALID,0,VALID,98.2073,VALID,-0.101885,VALID,19.6053,VALID,203,VALID,0,
2000-05-20, 00:06:00,VALID,918.053,VALID,0,VALID,98.2658,VALID,-0.0849042,VALID,19.6177,VALID,203,VALID,0,
2000-05-20, 00:07:00,VALID,918.057,VALID,0,VALID,98.1908,VALID,-0.118866,VALID,19.5827,VALID,203,VALID,0,
2000-05-20, 00:08:00,VALID,918.053,VALID,0,VALID,98.1679,VALID,-0.0679233,VALID,19.566,VALID,203,VALID,0,
2000-05-20, 00:09:00,VALID,918.039,VALID,0,VALID,98.1056,VALID,0,VALID,19.5258,VALID,182,VALID,0,
2000-05-20, 00:10:00,VALID,918.035,VALID,0,VALID,97.6643,VALID,0,VALID,19.3998,VALID,167,VALID,0,
2000-05-20, 00:11:00,VALID,918.02,VALID,0,VALID,97.5143,VALID,0,VALID,19.3195,VALID,165,VALID,0,
2000-05-20, 00:12:00,VALID,918.003,VALID,0,VALID,97.9263,VALID,0,VALID,19.3387,VALID,162,VALID,0,
2000-05-20, 00:13:00,VALID,917.992,VALID,0,VALID,98.4603,VALID,0,VALID,19.4358,VALID,161,VALID,0,
2000-05-20, 00:14:00,VALID,917.971,VALID,0,VALID,98.5481,VALID,0,VALID,19.4979,VALID,160,VALID,0.183689,
2000-05-20, 00:15:00,VALID,917.939,VALID,0,VALID,98.8202,VALID,0,VALID,19.5683,VALID,158,VALID,0.663662,
2000-05-20, 00:16:00,VALID,917.938,VALID,0,VALID,98.7884,VALID,-0.0339617,VALID,19.5916,VALID,159,VALID,0.503405,
2000-05-20, 00:17:00,VALID,917.956,VALID,0,VALID,98.9677,VALID,0,VALID,19.659,VALID,173,VALID,0.556538,
2000-05-20, 00:18:00,VALID,917.962,VALID,0,VALID,99.0237,VALID,-0.0339617,VALID,19.7276,VALID,172,VALID,0.668199,
2000-05-20, 00:19:00,VALID,917.925,VALID,0,VALID,98.9995,VALID,-0.0169808,VALID,19.7524,VALID,166,VALID,0.571181,
2000-05-20, 00:20:00,VALID,917.902,VALID,0,VALID,98.8355,VALID,0,VALID,19.6811,VALID,165,VALID,0.587595,
2000-05-20, 00:21:00,VALID,917.887,VALID,0,VALID,98.8901,VALID,0.0169808,VALID,19.6523,VALID,165,VALID,0.427576,
2000-05-20, 00:22:00,VALID,917.874,VALID,0,VALID,99.0224,VALID,0,VALID,19.6903,VALID,180,VALID,0.228631,
2000-05-20, 00:23:00,VALID,917.873,VALID,0,VALID,99.0644,VALID,-0.0339617,VALID,19.7469,VALID,193,VALID,0,
2000-05-20, 00:24:00,VALID,917.87,VALID,0,VALID,99.0338,VALID,-0.0849042,VALID,19.7636,VALID,195,VALID,0,
2000-05-20, 00:25:00,VALID,917.851,VALID,0,VALID,99.0097,VALID,-0.0849042,VALID,19.7539,VALID,192,VALID,0,
2000-05-20, 00:26:00,VALID,917.82,VALID,0,VALID,98.8316,VALID,-0.0849042,VALID,19.6729,VALID,176,VALID,0,
2000-05-20, 00:27:00,VALID,917.792,VALID,0,VALID,98.7299,VALID,-0.118866,VALID,19.5506,VALID,167,VALID,0,
2000-05-20, 00:28:00,VALID,917.765,VALID,0,VALID,98.9079,VALID,-0.101885,VALID,19.5369,VALID,165,VALID,0,
2000-05-20, 00:29:00,VALID,917.764,VALID,0,VALID,98.969,VALID,-0.0849042,VALID,19.5799,VALID,167,VALID,0,
2000-05-20, 00:30:00,VALID,917.769,VALID,0,VALID,99.0148,VALID,-0.101885,VALID,19.573,VALID,188,VALID,0,
2000-05-20, 00:31:00,VALID,917.788,VALID,0,VALID,99.0084,VALID,-0.101885,VALID,19.576,VALID,192,VALID,0,
2000-05-20, 00:32:00,VALID,917.784,VALID,0,VALID,98.9766,VALID,-0.101885,VALID,19.5464,VALID,192,VALID,0,
2000-05-20, 00:33:00,VALID,917.786,VALID,0,VALID,98.9118,VALID,-0.101885,VALID,19.5176,VALID,192,VALID,0,
2000-05-20, 00:34:00,VALID,917.752,VALID,0,VALID,98.8863,VALID,-0.101885,VALID,19.4694,VALID,192,VALID,0,
2000-05-20, 00:35:00,VALID,917.734,VALID,0,VALID,98.9677,VALID,-0.118866,VALID,19.4758,VALID,192,VALID,0,
2000-05-20, 00:36:00,VALID,917.707,VALID,0,VALID,98.9486,VALID,-0.101885,VALID,19.4793,VALID,192,VALID,0,
2000-05-20, 00:37:00,VALID,917.687,VALID,0,VALID,98.9067,VALID,-0.0849042,VALID,19.4502,VALID,192,VALID,0,
2000-05-20, 00:38:00,VALID,917.686,VALID,0,VALID,98.9168,VALID,-0.0679233,VALID,19.4102,VALID,192,VALID,0,
2000-05-20, 00:39:00,VALID,917.688,VALID,0,VALID,98.8024,VALID,0,VALID,19.3422,VALID,192,VALID,0,
2000-05-20, 00:40:00,VALID,917.682,VALID,0,VALID,98.4603,VALID,-0.0169808,VALID,19.1677,VALID,192,VALID,0,
2000-05-20, 00:41:00,VALID,917.674,VALID,0,VALID,98.206,VALID,-0.0169808,VALID,18.9998,VALID,192,VALID,0,
2000-05-20, 00:42:00,VALID,917.642,VALID,0,VALID,98.3434,VALID,0.0339617,VALID,18.9613,VALID,192,VALID,0,
2000-05-20, 00:43:00,VALID,917.61,VALID,0,VALID,98.5112,VALID,0.0169808,VALID,18.9541,VALID,192,VALID,0,
2000-05-20, 00:44:00,VALID,917.607,VALID,0,VALID,98.6447,VALID,0,VALID,18.9575,VALID,192,VALID,0,
2000-05-20, 00:45:00,VALID,917.591,VALID,0,VALID,98.6867,VALID,0,VALID,18.961,VALID,192,VALID,0,
2000-05-20, 00:46:00,VALID,917.6,VALID,0,VALID,98.6422,VALID,0.0169808,VALID,18.9255,VALID,192,VALID,0,
2000-05-20, 00:47:00,VALID,917.596,VALID,0,VALID,98.5659,VALID,0,VALID,18.8736,VALID,191,VALID,0,
2000-05-20, 00:48:00,VALID,917.583,VALID,0,VALID,98.4184,VALID,0.0169808,VALID,18.8122,VALID,180,VALID,0,
2000-05-20, 00:49:00,VALID,917.562,VALID,0,VALID,98.5366,VALID,0.0169808,VALID,18.7901,VALID,178,VALID,0,
2000-05-20, 00:50:00,VALID,917.538,VALID,0,VALID,98.7439,VALID,0.0169808,VALID,18.8318,VALID,177,VALID,0,
2000-05-20, 00:51:00,VALID,917.524,VALID,0,VALID,98.9041,VALID,0,VALID,18.8872,VALID,188,VALID,0,
2000-05-20, 00:52:00,VALID,917.508,VALID,0,VALID,98.8202,VALID,0,VALID,18.8997,VALID,202,VALID,0.126838,
2000-05-20, 00:53:00,VALID,917.496,VALID,0,VALID,98.8711,VALID,0.0169808,VALID,18.8932,VALID,198,VALID,0,
2000-05-20, 00:54:00,VALID,917.468,VALID,0,VALID,98.8431,VALID,0.0169808,VALID,18.9098,VALID,197,VALID,0,
2000-05-20, 00:55:00,VALID,917.458,VALID,0,VALID,98.9067,VALID,0,VALID,18.8805,VALID,203,VALID,0.273037,
2000-05-20, 00:56:00,VALID,917.457,VALID,0,VALID,99.2716,VALID,0,VALID,19.0321,VALID,212,VALID,0.910937,
2000-05-20, 00:57:00,VALID,917.463,VALID,0,VALID,99.4293,VALID,0,VALID,19.2134,VALID,206,VALID,1.09755,
2000-05-20, 00:58:00,VALID,917.454,VALID,0,VALID,99.4929,VALID,0,VALID,19.3357,VALID,203,VALID,1.21209,
2000-05-20, 00:59:00,VALID,917.465,VALID,0,VALID,99.5348,VALID,0,VALID,19.4555,VALID,180,VALID,1.22276,
2000-05-20, 01:00:00,VALID,917.442,VALID,0,VALID,99.484,VALID,0,VALID,19.5176,VALID,176,VALID,0.977385,
2000-05-20, 01:01:00,VALID,917.42,VALID,0,VALID,99.4166,VALID,0.0169808,VALID,19.5176,VALID,175,VALID,0.967928,
2000-05-20, 01:02:00,VALID,917.384,VALID,0,VALID,99.414,VALID,0,VALID,19.5141,VALID,181,VALID,1.01696,
2000-05-20, 01:03:00,VALID,917.363,VALID,0,VALID,99.4051,VALID,0,VALID,19.5138,VALID,189,VALID,1.24683,
2000-05-20, 01:04:00,VALID,917.354,VALID,0,VALID,99.3517,VALID,-0.0169808,VALID,19.4945,VALID,188,VALID,0.888327,
2000-05-20, 01:05:00,VALID,917.349,VALID,0,VALID,99.3823,VALID,0.0169808,VALID,19.5007,VALID,193,VALID,0.975507,
2000-05-20, 01:06:00,VALID,917.346,VALID,0,VALID,99.3695,VALID,0.0339617,VALID,19.4873,VALID,206,VALID,0.987549,
2000-05-20, 01:07:00,VALID,917.351,VALID,0,VALID,99.3937,VALID,0,VALID,19.4942,VALID,200,VALID,0.917268,
2000-05-20, 01:08:00,VALID,917.355,VALID,0,VALID,99.3899,VALID,0,VALID,19.4875,VALID,198,VALID,0.912946,
2000-05-20, 01:09:00,VALID,917.332,VALID,0,VALID,99.3708,VALID,-0.0169808,VALID,19.4751,VALID,198,VALID,0.787796,
2000-05-20, 01:10:00,VALID,917.311,VALID,0,VALID,99.4026,VALID,0.0339617,VALID,19.4679,VALID,199,VALID,1.05239,
2000-05-20, 01:11:00,VALID,917.287,VALID,0,VALID,99.4369,VALID,0.0169808,VALID,19.5002,VALID,200,VALID,0.924831,
2000-05-20, 01:12:00,VALID,917.27,VALID,0,VALID,99.4242,VALID,0,VALID,19.5002,VALID,203,VALID,0.61287,
2000-05-20, 01:13:00,VALID,917.254,VALID,0,VALID,99.4509,VALID,0,VALID,19.5168,VALID,215,VALID,0.721423,
2000-05-20, 01:14:00,VALID,917.24,VALID,0,VALID,99.4433,VALID,0,VALID,19.526,VALID,230,VALID,0.389509,
2000-05-20, 01:15:00,VALID,917.231,VALID,0,VALID,99.4204,VALID,0,VALID,19.5198,VALID,225,VALID,0.798775,
2000-05-20, 01:16:00,VALID,917.214,VALID,0,VALID,99.3835,VALID,0.0169808,VALID,19.4967,VALID,217,VALID,0.883272,
2000-05-20, 01:17:00,VALID,917.197,VALID,0,VALID,99.381,VALID,0,VALID,19.4746,VALID,213,VALID,1.03252,
2000-05-20, 01:18:00,VALID,917.176,VALID,0,VALID,99.3823,VALID,0.0339617,VALID,19.4714,VALID,212,VALID,0.712158,
2000-05-20, 01:19:00,VALID,917.151,VALID,0,VALID,99.3924,VALID,0.0339617,VALID,19.4582,VALID,212,VALID,0.670473,
2000-05-20, 01:20:00,VALID,917.131,VALID,0,VALID,99.3886,VALID,0,VALID,19.4555,VALID,209,VALID,0.566518,
2000-05-20, 01:21:00,VALID,917.113,VALID,0,VALID,99.3823,VALID,0.0169808,VALID,19.4289,VALID,220,VALID,0.733742,
2000-05-20, 01:22:00,VALID,917.093,VALID,0,VALID,99.4204,VALID,0.0339617,VALID,19.452,VALID,224,VALID,0.694623,
2000-05-20, 01:23:00,VALID,917.081,VALID,0,VALID,99.4369,VALID,0,VALID,19.4612,VALID,221,VALID,0.792441,
2000-05-20, 01:24:00,VALID,917.049,VALID,0,VALID,99.4344,VALID,0,VALID,19.4709,VALID,212,VALID,0.686883,
2000-05-20, 01:25:00,VALID,917.042,VALID,0,VALID,99.4115,VALID,0.0339617,VALID,19.4582,VALID,205,VALID,0.273438,
2000-05-20, 01:26:00,VALID,917.032,VALID,0,VALID,99.367,VALID,0,VALID,19.4353,VALID,227,VALID,0.0636161,
2000-05-20, 01:27:00,VALID,917.041,VALID,0,VALID,99.3517,VALID,0,VALID,19.4331,VALID,230,VALID,0,
2000-05-20, 01:28:00,VALID,917.035,VALID,0,VALID,99.2704,VALID,0,VALID,19.3749,VALID,215,VALID,0,
2000-05-20, 01:29:00,VALID,917.027,VALID,0,VALID,99.2284,VALID,0,VALID,19.3131,VALID,204,VALID,0,
2000-05-20, 01:30:00,VALID,917.002,VALID,0,VALID,99.3352,VALID,-0.0169808,VALID,19.3009,VALID,196,VALID,0.346436,
2000-05-20, 01:31:00,VALID,916.972,VALID,0,VALID,99.4229,VALID,0,VALID,19.3459,VALID,194,VALID,0.868389,
2000-05-20, 01:32:00,VALID,916.949,VALID,0,VALID,99.4331,VALID,0,VALID,19.3749,VALID,195,VALID,0.870089,
2000-05-20, 01:33:00,VALID,916.919,VALID,0,VALID,99.4496,VALID,0.0169808,VALID,19.3906,VALID,200,VALID,0.92103,
2000-05-20, 01:34:00,VALID,916.91,VALID,0,VALID,99.4458,VALID,0.0169808,VALID,19.4199,VALID,204,VALID,0.742647,
2000-05-20, 01:35:00,VALID,916.907,VALID,0,VALID,99.4166,VALID,0.0169808,VALID,19.3998,VALID,203,VALID,1.0587,
2000-05-20, 01:36:00,VALID,916.906,VALID,0,VALID,99.4357,VALID,0,VALID,19.4294,VALID,199,VALID,0.973273,
2000-05-20, 01:37:00,VALID,916.919,VALID,0,VALID,99.4064,VALID,0,VALID,19.4458,VALID,210,VALID,0.740132,
2000-05-20, 01:38:00,VALID,916.925,VALID,0,VALID,99.3594,VALID,-0.0169808,VALID,19.4425,VALID,214,VALID,0.608036,
2000-05-20, 01:39:00,VALID,916.929,VALID,0,VALID,99.3543,VALID,0,VALID,19.4328,VALID,216,VALID,0.893159,
2000-05-20, 01:40:00,VALID,916.916,VALID,0,VALID,99.3085,VALID,-0.0169808,VALID,19.4167,VALID,215,VALID,0.498162,
2000-05-20, 01:41:00,VALID,916.934,VALID,0,VALID,99.2487,VALID,0,VALID,19.3883,VALID,221,VALID,0.210726,
2000-05-20, 01:42:00,VALID,916.93,VALID,0,VALID,99.2271,VALID,-0.0339617,VALID,19.3429,VALID,207,VALID,0.501221,
2000-05-20, 01:43:00,VALID,916.933,VALID,0,VALID,99.1381,VALID,0,VALID,19.3002,VALID,202,VALID,0.243189,
2000-05-20, 01:44:00,VALID,916.927,VALID,0,VALID,98.8762,VALID,0,VALID,19.1424,VALID,201,VALID,0.18683,
2000-05-20, 01:45:00,VALID,916.903,VALID,0,VALID,98.4375,VALID,-0.0169808,VALID,18.9386,VALID,200,VALID,0.0793919,
2000-05-20, 01:46:00,VALID,916.877,VALID,0,VALID,98.2721,VALID,0,VALID,18.8425,VALID,197,VALID,0,
2000-05-20, 01:47:00,VALID,916.847,VALID,0,VALID,98.4286,VALID,0,VALID,18.7931,VALID,194,VALID,0,
2000-05-20, 01:48:00,VALID,916.819,VALID,0,VALID,98.4718,VALID,0.0169808,VALID,18.7672,VALID,193,VALID,0,
2000-05-20, 01:49:00,VALID,916.801,VALID,0,VALID,98.5023,VALID,0,VALID,18.7511,VALID,193,VALID,0,
2000-05-20, 01:50:00,VALID,916.804,VALID,0,VALID,98.5722,VALID,-0.0169808,VALID,18.7583,VALID,193,VALID,0,
2000-05-20, 01:51:00,VALID,916.791,VALID,0,VALID,98.6765,VALID,0,VALID,18.7642,VALID,193,VALID,0,
2000-05-20, 01:52:00,VALID,916.758,VALID,0,VALID,98.9041,VALID,0,VALID,18.8286,VALID,193,VALID,0,
2000-05-20, 01:53:00,VALID,916.723,VALID,0,VALID,98.8291,VALID,-0.0169808,VALID,18.8519,VALID,193,VALID,0,
2000-05-20, 01:54:00,VALID,916.704,VALID,0,VALID,98.3434,VALID,0,VALID,18.7034,VALID,193,VALID,0,
2000-05-20, 01:55:00,VALID,916.716,VALID,0,VALID,97.9708,VALID,0,VALID,18.5898,VALID,193,VALID,0,
2000-05-20, 01:56:00,VALID,916.748,VALID,0,VALID,97.9708,VALID,-0.0169808,VALID,18.5645,VALID,193,VALID,0,
2000-05-20, 01:57:00,VALID,916.779,VALID,0,VALID,98.1424,VALID,-0.0169808,VALID,18.5935,VALID,193,VALID,0,
2000-05-20, 01:58:00,VALID,916.769,VALID,0,VALID,98.4336,VALID,-0.0169808,VALID,18.6773,VALID,193,VALID,0,
2000-05-20, 01:59:00,VALID,916.756,VALID,0,VALID,98.2137,VALID,0,VALID,18.6228,VALID,169,VALID,0,
2000-05-20, 02:00:00,VALID,916.721,VALID,0,VALID,97.9225,VALID,0,VALID,18.493,VALID,118,VALID,0,
2000-05-20, 02:01:00,VALID,916.716,VALID,0,VALID,98.0242,VALID,-0.0169808,VALID,18.4706,VALID,100,VALID,0,
2000-05-20, 02:02:00,VALID,916.725,VALID,0,VALID,98.0331,VALID,-0.0339617,VALID,18.4448,VALID,83,VALID,0,
2000-05-20, 02:03:00,VALID,916.724,VALID,0,VALID,98.262,VALID,0,VALID,18.487,VALID,62,VALID,0,
2000-05-20, 02:04:00,VALID,916.73,VALID,0,VALID,98.7617,VALID,0.0339617,VALID,18.6904,VALID,53,VALID,0,
2000-05-20, 02:05:00,VALID,916.759,VALID,0,VALID,98.8711,VALID,0,VALID,18.7714,VALID,53,VALID,0,
2000-05-20, 02:06:00,VALID,916.759,VALID,0,VALID,98.8024,VALID,0,VALID,18.7617,VALID,53,VALID,0,
2000-05-20, 02:07:00,VALID,916.769,VALID,0,VALID,98.7401,VALID,0,VALID,18.7068,VALID,53,VALID,0,
2000-05-20, 02:08:00,VALID,916.774,VALID,0,VALID,98.6193,VALID,-0.0169808,VALID,18.6521,VALID,96,VALID,0,
2000-05-20, 02:09:00,VALID,916.778,VALID,0,VALID,98.3612,VALID,-0.0339617,VALID,18.5518,VALID,111,VALID,0,
2000-05-20, 02:10:00,VALID,916.763,VALID,0,VALID,98.4095,VALID,0,VALID,18.5486,VALID,111,VALID,0,
2000-05-20, 02:11:00,VALID,916.786,VALID,0,VALID,98.777,VALID,0,VALID,18.6713,VALID,96,VALID,0,
2000-05-20, 02:12:00,VALID,916.808,VALID,0,VALID,98.8927,VALID,-0.0339617,VALID,18.759,VALID,95,VALID,0,
2000-05-20, 02:13:00,VALID,916.804,VALID,0,VALID,98.8863,VALID,-0.0509425,VALID,18.7583,VALID,95,VALID,0,
2000-05-20, 02:14:00,VALID,916.8,VALID,0,VALID,98.9207,VALID,-0.0169808,VALID,18.788,VALID,95,VALID,0,
2000-05-20, 02:15:00,VALID,916.799,VALID,0,VALID,98.9486,VALID,-0.0169808,VALID,18.8074,VALID,95,VALID,0,
2000-05-20, 02:16:00,VALID,916.801,VALID,0,VALID,98.8812,VALID,-0.0169808,VALID,18.7846,VALID,95,VALID,0,
2000-05-20, 02:17:00,VALID,916.81,VALID,0,VALID,98.8685,VALID,0,VALID,18.7583,VALID,95,VALID,0,
2000-05-20, 02:18:00,VALID,916.802,VALID,0,VALID,98.8482,VALID,-0.0169808,VALID,18.7329,VALID,95,VALID,0,
2000-05-20, 02:19:00,VALID,916.79,VALID,0,VALID,98.8978,VALID,-0.0169808,VALID,18.7327,VALID,95,VALID,0,
2000-05-20, 02:20:00,VALID,916.778,VALID,0,VALID,98.9232,VALID,0,VALID,18.7458,VALID,95,VALID,0,
2000-05-20, 02:21:00,VALID,916.797,VALID,0,VALID,98.9181,VALID,-0.0169808,VALID,18.7553,VALID,95,VALID,0,
2000-05-20, 02:22:00,VALID,916.792,VALID,0,VALID,98.9219,VALID,-0.0509425,VALID,18.7555,VALID,95,VALID,0,
2000-05-20, 02:23:00,VALID,916.808,VALID,0,VALID,98.9245,VALID,-0.0169808,VALID,18.7525,VALID,95,VALID,0,
2000-05-20, 02:24:00,VALID,916.819,VALID,0,VALID,98.913,VALID,-0.0339617,VALID,18.7423,VALID,95,VALID,0,
2000-05-20, 02:25:00,VALID,916.826,VALID,0,VALID,98.688,VALID,-0.0169808,VALID,18.6228,VALID,95,VALID,0,
2000-05-20, 02:26:00,VALID,916.851,VALID,0,VALID,98.3205,VALID,-0.0169808,VALID,18.4515,VALID,95,VALID,0,
2000-05-20, 02:27:00,VALID,916.847,VALID,0,VALID,98.5188,VALID,-0.0339617,VALID,18.4328,VALID,95,VALID,0,
2000-05-20, 02:28:00,VALID,916.841,VALID,0,VALID,98.8558,VALID,-0.0169808,VALID,18.5008,VALID,95,VALID,0,
2000-05-20, 02:29:00,VALID,916.825,VALID,0,VALID,99.0656,VALID,-0.0169808,VALID,18.5942,VALID,131,VALID,0,
2000-05-20, 02:30:00,VALID,916.816,VALID,0,VALID,99.002,VALID,-0.0169808,VALID,18.6295,VALID,196,VALID,0,
2000-05-20, 02:31:00,VALID,916.804,VALID,0,VALID,98.997,VALID,-0.0169808,VALID,18.6367,VALID,224,VALID,0,
2000-05-20, 02:32:00,VALID,916.798,VALID,0,VALID,99.105,VALID,-0.0339617,VALID,18.6616,VALID,230,VALID,0,
2000-05-20, 02:33:00,VALID,916.783,VALID,0,VALID,99.0923,VALID,0,VALID,18.6844,VALID,231,VALID,0,
2000-05-20, 02:34:00,VALID,916.755,VALID,0,VALID,99.0109,VALID,0,VALID,18.6653,VALID,232,VALID,0,
2000-05-20, 02:35:00,VALID,916.731,VALID,0,VALID,99.0008,VALID,-0.0169808,VALID,18.6261,VALID,242,VALID,0,
2000-05-20, 02:36:00,VALID,916.713,VALID,0,VALID,99.0377,VALID,0.0169808,VALID,18.6102,VALID,245,VALID,0,
2000-05-20, 02:37:00,VALID,916.716,VALID,0,VALID,99.1979,VALID,-0.0169808,VALID,18.6519,VALID,245,VALID,0,
2000-05-20, 02:38:00,VALID,916.727,VALID,0,VALID,99.2805,VALID,0,VALID,18.7297,VALID,245,VALID,0,
2000-05-20, 02:39:00,VALID,916.756,VALID,0,VALID,99.3352,VALID,-0.0849042,VALID,18.7947,VALID,245,VALID,0,
2000-05-20, 02:40:00,VALID,916.767,VALID,0,VALID,99.3365,VALID,-0.101885,VALID,18.8471,VALID,245,VALID,0,
2000-05-20, 02:41:00,VALID,916.777,VALID,0,VALID,99.311,VALID,-0.0849042,VALID,18.8499,VALID,245,VALID,0,
2000-05-20, 02:42:00,VALID,916.767,VALID,0,VALID,99.2309,VALID,-0.101885,VALID,18.8372,VALID,245,VALID,0,
2000-05-20, 02:43:00,VALID,916.749,VALID,0,VALID,99.208,VALID,-0.118866,VALID,18.7915,VALID,245,VALID,0,
2000-05-20, 02:44:00,VALID,916.722,VALID,0,VALID,99.2119,VALID,-0.101885,VALID,18.7825,VALID,245,VALID,0,
2000-05-20, 02:45:00,VALID,916.716,VALID,0,VALID,99.086,VALID,-0.101885,VALID,18.7207,VALID,227,VALID,0,
2000-05-20, 02:46:00,VALID,916.717,VALID,0,VALID,99.1534,VALID,-0.0679233,VALID,18.6946,VALID,215,VALID,0,
2000-05-20, 02:47:00,VALID,916.728,VALID,0,VALID,99.1318,VALID,-0.0509425,VALID,18.6655,VALID,215,VALID,0,
2000-05-20, 02:48:00,VALID,916.764,VALID,0,VALID,99.1915,VALID,-0.0509425,VALID,18.669,VALID,215,VALID,0,
2000-05-20, 02:49:00,VALID,916.778,VALID,0,VALID,99.1864,VALID,-0.0849042,VALID,18.6556,VALID,215,VALID,0,
2000-05-20, 02:50:00,VALID,916.8,VALID,0,VALID,99.1724,VALID,-0.0509425,VALID,18.6588,VALID,215,VALID,0,
2000-05-20, 02:51:00,VALID,916.768,VALID,0,VALID,99.2373,VALID,-0.0679233,VALID,18.6651,VALID,215,VALID,0,
2000-05-20, 02:52:00,VALID,916.746,VALID,0,VALID,99.3543,VALID,-0.0849042,VALID,18.7301,VALID,215,VALID,0,
2000-05-20, 02:53:00,VALID,916.717,VALID,0,VALID,99.4318,VALID,-0.0679233,VALID,18.834,VALID,215,VALID,0,
2000-05-20, 02:54:00,VALID,916.685,VALID,0,VALID,99.3009,VALID,-0.101885,VALID,18.8044,VALID,215,VALID,0,
2000-05-20, 02:55:00,VALID,916.709,VALID,0,VALID,99.1457,VALID,-0.0339617,VALID,18.7334,VALID,215,VALID,0,
2000-05-20, 02:56:00,VALID,916.735,VALID,0,VALID,99.0122,VALID,-0.0679233,VALID,18.6339,VALID,215,VALID,0,
2000-05-20, 02:57:00,VALID,916.747,VALID,0,VALID,99.2004,VALID,-0.0679233,VALID,18.6757,VALID,215,VALID,0,
2000-05-20, 02:58:00,VALID,916.744,VALID,0,VALID,99.409,VALID,-0.0849042,VALID,18.8245,VALID,214,VALID,0,
2000-05-20, 02:59:00,VALID,916.73,VALID,0,VALID,99.3377,VALID,-0.0849042,VALID,18.87,VALID,214,VALID,0,
2000-05-20, 03:00:00,VALID,916.723,VALID,0,VALID,99.0071,VALID,-0.0679233,VALID,18.6367,VALID,214,VALID,0,
2000-05-20, 03:01:00,VALID,916.716,VALID,0,VALID,99.0326,VALID,-0.101885,VALID,18.6171,VALID,214,VALID,0,
2000-05-20, 03:02:00,VALID,916.703,VALID,0,VALID,99.0605,VALID,-0.101885,VALID,18.6376,VALID,214,VALID,0,
2000-05-20, 03:03:00,VALID,916.695,VALID,0,VALID,99.1979,VALID,-0.101885,VALID,18.6369,VALID,214,VALID,0,
2000-05-20, 03:04:00,VALID,916.675,VALID,0,VALID,99.4433,VALID,-0.0849042,VALID,18.7728,VALID,214,VALID,0,
2000-05-20, 03:05:00,VALID,916.651,VALID,0,VALID,99.5145,VALID,-0.0849042,VALID,18.8953,VALID,214,VALID,0,
2000-05-20, 03:06:00,VALID,916.647,VALID,0,VALID,99.531,VALID,-0.0849042,VALID,18.9985,VALID,214,VALID,0,
2000-05-20, 03:07:00,VALID,916.658,VALID,0,VALID,99.4204,VALID,-0.0849042,VALID,19.037,VALID,214,VALID,0,
2000-05-20, 03:08:00,VALID,916.634,VALID,0,VALID,99.3632,VALID,-0.101885,VALID,19.0245,VALID,214,VALID,0,
2000-05-20, 03:09:00,VALID,916.631,VALID,0,VALID,99.2907,VALID,-0.0679233,VALID,18.9918,VALID,213,VALID,0,
2000-05-20, 03:10:00,VALID,916.616,VALID,0,VALID,99.0389,VALID,-0.118866,VALID,18.8859,VALID,195,VALID,0,
2000-05-20, 03:11:00,VALID,916.609,VALID,0,VALID,98.707,VALID,-0.101885,VALID,18.6752,VALID,182,VALID,0,
2000-05-20, 03:12:00,VALID,916.6,VALID,0,VALID,98.7655,VALID,-0.0849042,VALID,18.5753,VALID,182,VALID,0,
2000-05-20, 03:13:00,VALID,916.611,VALID,0,VALID,98.6841,VALID,-0.0849042,VALID,18.5048,VALID,186,VALID,0,
2000-05-20, 03:14:00,VALID,916.626,VALID,0,VALID,98.674,VALID,-0.101885,VALID,18.4335,VALID,222,VALID,0,
2000-05-20, 03:15:00,VALID,916.652,VALID,0,VALID,98.6422,VALID,-0.101885,VALID,18.3719,VALID,237,VALID,0,
2000-05-20, 03:16:00,VALID,916.667,VALID,0,VALID,98.7312,VALID,-0.0679233,VALID,18.3626,VALID,229,VALID,0,
2000-05-20, 03:17:00,VALID,916.647,VALID,0,VALID,98.7604,VALID,-0.101885,VALID,18.3366,VALID,232,VALID,0,
2000-05-20, 03:18:00,VALID,916.637,VALID,0,VALID,98.866,VALID,-0.101885,VALID,18.3331,VALID,225,VALID,0,
2000-05-20, 03:19:00,VALID,916.605,VALID,0,VALID,98.866,VALID,-0.101885,VALID,18.34,VALID,217,VALID,0,
2000-05-20, 03:20:00,VALID,916.594,VALID,0,VALID,98.8037,VALID,-0.0849042,VALID,18.3043,VALID,210,VALID,0,
2000-05-20, 03:21:00,VALID,916.577,VALID,0,VALID,98.8024,VALID,-0.101885,VALID,18.2588,VALID,203,VALID,0,
2000-05-20, 03:22:00,VALID,916.594,VALID,0,VALID,98.7795,VALID,-0.0849042,VALID,18.2106,VALID,202,VALID,0,
2000-05-20, 03:23:00,VALID,916.598,VALID,0,VALID,98.866,VALID,-0.0509425,VALID,18.2035,VALID,202,VALID,0,
2000-05-20, 03:24:00,VALID,916.601,VALID,0,VALID,98.9703,VALID,0.0339617,VALID,18.2254,VALID,202,VALID,0,
2000-05-20, 03:25:00,VALID,916.589,VALID,0,VALID,99.0453,VALID,0.0679233,VALID,18.2478,VALID,202,VALID,0,
2000-05-20, 03:26:00,VALID,916.566,VALID,0,VALID,98.9919,VALID,0.0849042,VALID,18.2409,VALID,202,VALID,0,
2000-05-20, 03:27:00,VALID,916.55,VALID,0,VALID,99.0122,VALID,0.0509425,VALID,18.2379,VALID,202,VALID,0,
2000-05-20, 03:28:00,VALID,916.534,VALID,0,VALID,98.9486,VALID,0.0509425,VALID,18.2026,VALID,198,VALID,0,
2000-05-20, 03:29:00,VALID,916.526,VALID,0,VALID,99.0453,VALID,0.0509425,VALID,18.1894,VALID,184,VALID,0,
2000-05-20, 03:30:00,VALID,916.519,VALID,0,VALID,99.1483,VALID,0.0169808,VALID,18.2249,VALID,197,VALID,0,
2000-05-20, 03:31:00,VALID,916.515,VALID,0,VALID,99.1572,VALID,0.0509425,VALID,18.2381,VALID,211,VALID,0,
2000-05-20, 03:32:00,VALID,916.508,VALID,0,VALID,99.1,VALID,0.0679233,VALID,18.2254,VALID,211,VALID,0,
2000-05-20, 03:33:00,VALID,916.494,VALID,0,VALID,99.1101,VALID,0.0509425,VALID,18.2051,VALID,210,VALID,0,
2000-05-20, 03:34:00,VALID,916.473,VALID,0,VALID,99.0885,VALID,0.0339617,VALID,18.1993,VALID,203,VALID,0,
2000-05-20, 03:35:00,VALID,916.463,VALID,0,VALID,99.0605,VALID,0.0509425,VALID,18.1578,VALID,182,VALID,0,
2000-05-20, 03:36:00,VALID,916.452,VALID,0,VALID,99.1559,VALID,0.0339617,VALID,18.1899,VALID,164,VALID,0,
2000-05-20, 03:37:00,VALID,916.421,VALID,0,VALID,98.6346,VALID,0.0169808,VALID,17.9768,VALID,136,VALID,0,
2000-05-20, 03:38:00,VALID,916.396,VALID,0,VALID,98.7274,VALID,0,VALID,17.9486,VALID,136,VALID,0,
2000-05-20, 03:39:00,VALID,916.409,VALID,0,VALID,98.707,VALID,-0.101885,VALID,17.9103,VALID,136,VALID,0,
2000-05-20, 03:40:00,VALID,916.402,VALID,0,VALID,98.8367,VALID,-0.0849042,VALID,17.9198,VALID,136,VALID,0,
2000-05-20, 03:41:00,VALID,916.411,VALID,0,VALID,98.9436,VALID,-0.0849042,VALID,17.9687,VALID,136,VALID,0,
2000-05-20, 03:42:00,VALID,916.41,VALID,0,VALID,99.0033,VALID,-0.0509425,VALID,17.9874,VALID,136,VALID,0,
2000-05-20, 03:43:00,VALID,916.391,VALID,0,VALID,98.9995,VALID,-0.0849042,VALID,17.9846,VALID,136,VALID,0,